map of ESU home
Great Circle Mapper logo
ESU - Airport
Location
City:  Essaouira, Morocco
Name:Mogador
ICAO / IATA:GMMI / ESU

Details
Type:Airport (Aerodrome, Airfield)
Use:International (customs port of entry)
Latitude:3123'51"N (31.397500)
Longitude:940'54"W (-9.681666)
Datum:WGS 1984
Elevation:384 ft (117 m)
Runways:1
Longest:6890 × 148 ft (2100 × 45 m), paved

Time
Time Zone:UTC+0 (DST+1)
Local Time:

Weather
METAR:GMMI 241400Z 36007KT 6000 SCT030 25/15 Q1014 NOSIG
TAF:GMMI 241100Z 2412/2518 32006KT 8000 SCT010
BECMG 2417/2420 VRB02KT PROB30 2423/2509 16005KT 1500 BR

Related Locations
Nearby:
Farthest:NLK: 12220 mi / 19667 km
Norfolk Island, NF

Find:

   beyond  
but within

Other Information
Maps:
NOTAMs:
Links:
Sources:

  
flag of Morocco   

Sectional Chart

Flight Planning
at skyvector.com

Satellite Image

Google Maps Satellite View

 

Copyright © 2004-2014 Karl L. Swartz. All rights reserved.
The Great Circle Mapper name and logo are trademarks of the Great Circle Mapper.
All other trademarks mentioned herein belong to their respective owners.
Please see credits for attibutions and further copyright information.

  Follow gcmap on Facebook Follow gcmap on Twitter

hCard Microformat

Geo Microformat